This is the latest recevied weather packets stored in our database for station/object W8KVG. If no packets are shown the sender has not sent any weather packets the latest 10 day(s).
| Time | Temp. | Humidity | Pressure | Rain* | Wind** | Luminosity | Snow |
|---|---|---|---|---|---|---|---|
| 1778114453 | 10° C | 68% | 1012.2 hPa | 0 mm | - | 0 W/m² | - |
| 1778114149 | 10° C | 67% | 1012.1 hPa | 0 mm | - | 0 W/m² | - |
| 1778113844 | 10.56° C | 67% | 1011.9 hPa | 0 mm | - | 0 W/m² | - |
| 1778113541 | 10.56° C | 66% | 1012 hPa | 0 mm | - | 1 W/m² | - |
| 1778113236 | 10.56° C | 67% | 1012.1 hPa | 0 mm | - | 1 W/m² | - |
| 1778112933 | 10.56° C | 68% | 1011.8 hPa | 0 mm | - | 2 W/m² | - |
| 1778112631 | 10.56° C | 67% | 1011.7 hPa | 0 mm | - | 3 W/m² | - |
| 1778112326 | 10.56° C | 65% | 1011.9 hPa | 0 mm | - | 4 W/m² | - |
| 1778112017 | 10.56° C | 63% | 1012 hPa | 0 mm | - | 4 W/m² | - |
| 1778111714 | 10.56° C | 64% | 1011.9 hPa | 0 mm | - | 5 W/m² | - |
| 1778111410 | 11.11° C | 66% | 1011.9 hPa | 0 mm | - | 6 W/m² | - |
| 1778111108 | 11.11° C | 64% | 1012.1 hPa | 0 mm | - | 4 W/m² | - |
| 1778110805 | 11.11° C | 65% | 1012.1 hPa | 0 mm | - | 9 W/m² | - |
| 1778110501 | 11.11° C | 66% | 1011.9 hPa | 0 mm | - | 11 W/m² | - |
| 1778110197 | 11.11° C | 64% | 1011.7 hPa | 0 mm | - | 15 W/m² | - |
| 1778109894 | 11.11° C | 63% | 1011.5 hPa | 0 mm | - | 20 W/m² | - |
| 1778109590 | 11.11° C | 63% | 1011.5 hPa | 0 mm | - | 21 W/m² | - |
| 1778109288 | 11.67° C | 65% | 1011.6 hPa | 0 mm | - | 16 W/m² | - |
| 1778108985 | 11.67° C | 66% | 1011.5 hPa | 0 mm | - | 16 W/m² | - |
| 1778108681 | 11.67° C | 64% | 1011.4 hPa | 0 mm | - | 22 W/m² | - |
| 1778108378 | 11.67° C | 66% | 1011.6 hPa | 0 mm | - | 26 W/m² | - |
| 1778108075 | 11.67° C | 65% | 1011.4 hPa | 0 mm | - | 30 W/m² | - |
| 1778107772 | 12.22° C | 66% | 1011.2 hPa | 0 mm | - | 58 W/m² | - |
| 1778107469 | 11.67° C | 64% | 1011.1 hPa | 0 mm | - | 60 W/m² | - |
| 1778107166 | 12.22° C | 65% | 1011 hPa | 0 mm | - | 43 W/m² | - |
* Rain latest hour (hover to see other rain measurements)
** Current wind speed in m/s (hover to see current wind gust speed)